Regional Weather Roundup
Issued by NWS

Home | Current Version | Previous Version | Graphics & Text | Print | Product List | Glossary On
Versions: 1 2 3 4 5 6 7 8 9 10 11 12 13 14 15 16 17 18 19 20 21 22 23 24 25 26 27 28 29 30 31 32 33 34 35 36 37 38 39 40 41 42 43 44 45 46 47 48 49 50
000
ASUS43 KLOT 281158
RWRIL

ILLINOIS REGIONAL WEATHER ROUNDUP
NATIONAL WEATHER SERVICE CHICAGO/ROMEOVILLE IL
600 AM CST FRI NOV 28 2014

NOTE: "FAIR" INDICATES FEW OR NO CLOUDS BELOW 12,000 FEET WITH NO
SIGNIFICANT WEATHER AND/OR OBSTRUCTIONS TO VISIBILITY.

* THESE STATIONS ARE NOT UNDER NWS QUALITY CONTROL. THEY ALSO MAY NOT
  REPORT WEATHER SUCH AS PRECIPITATION OR FOG.

ILZ001-002-007-009-015-016-024-281300-
NORTHWEST ILLINOIS

CITY           SKY/WX    TMP DP  RH WIND       PRES   REMARKS
MOLINE         CLOUDY    18   8  65 SE10      30.22F WCI   6
6HR MIN TEMP:  13; 6HR MAX TEMP:  18; 6HR PCP: TRACE;

$$

ILZ003-004-008-010-011-017-018-281300-
NORTH CENTRAL ILLINOIS

CITY           SKY/WX    TMP DP  RH WIND       PRES   REMARKS
ROCKFORD       NOT AVBL
$$

ILZ005-006-012>014-019>023-281300-
NORTHEAST ILLINOIS

CITY           SKY/WX    TMP DP  RH WIND       PRES   REMARKS
CHICAGO-OHARE  CLOUDY    20  13  74 S6        30.30F WCI  12
6HR MIN TEMP:  18; 6HR MAX TEMP:  20; 6HR PCP: TRACE;

CHICAGO-MIDWAY NOT AVBL
AURORA         CLOUDY    19  10  68 SE8       30.29F WCI   9
6HR MIN TEMP:  13; 6HR MAX TEMP:  19;

WAUKEGAN       NOT AVBL
DUPAGE AIRPORT CLOUDY    19  12  74 SE7       30.27F WCI  10
6HR MIN TEMP:  13; 6HR MAX TEMP:  19;

WHEELING       CLOUDY    20  12  71 S6        30.31F WCI  12
6HR MIN TEMP:  17; 6HR MAX TEMP:  20;

NORTHERLY ISL    N/A     21  11  65 S5          N/A  WCI  15
$$

LMZ740>746-281300-
SOUTHERN LAKE MICHIGAN

STATION/POSITION SKY/WX   TEMP    WIND        PRES    VSBY  WAVE
                          AIR SEA DIR/SP/G                  HT/PER
                          (F)     (DEG/KT/KT) (MB)    (MI)  (FT/S)
SOUTHERN BUOY              24 42  230/  8/ 10 1028.2F         2/ 6
WAUKEGAN HARBOR            19     210/  6/  8   N/A
HARRISON CRIB              21     200/  9/ 12   N/A
BURNHAM HARBOR             21     180/  4/  7   N/A
CALUMET HARBOR             21     140/  5/  6 1025.4F
MICHIGAN CITY              21     150/  5/  6   N/A
$$

ILZ025>027-034>036-040-047-049-050-058-095>099-281300-
WEST-CENTRAL ILLINOIS

CITY           SKY/WX    TMP DP  RH WIND       PRES   REMARKS
$$

ILZ028>032-037-038-041>044-048-051>054-059>061-281300-
CENTRAL ILLINOIS

CITY           SKY/WX    TMP DP  RH WIND       PRES   REMARKS
PEORIA         NOT AVBL
SPRINGFIELD    PTCLDY    18  12  77 SE10      30.28F WCI   6
6HR MIN TEMP:  16; 6HR MAX TEMP:  19;

TAYLORVILLE    NOT AVBL
$$

ILZ033-039-045-046-055>057-062-063-281300-
EAST-CENTRAL ILLINOIS

CITY           SKY/WX    TMP DP  RH WIND       PRES   REMARKS
$$

ILZ079-100>102-281300-
SOUTHWEST ILLINOIS

CITY           SKY/WX    TMP DP  RH WIND       PRES   REMARKS
$$

ILZ064>066-069>071-074>076-080>082-084>086-088>090-092>094-281300-
SOUTH-CENTRAL ILLINOIS

CITY           SKY/WX    TMP DP  RH WIND       PRES   REMARKS
CARBONDALE     CLEAR     25  22  88 SE5       30.36F WCI  19
6HR MIN TEMP:  24; 6HR MAX TEMP:  27;

$$

ILZ067-068-072-073-078-083-087-091-281300-
SOUTHEAST ILLINOIS

CITY           SKY/WX    TMP DP  RH WIND       PRES   REMARKS
$$

ABBREVIATIONS USED IN REMARKS
   TC - TEMPERATURE IN CELSIUS
  WCI - WIND CHILL INDEX
   HX - HEAT INDEX
  VSB - VISIBILITY
$$



USA.gov is the U.S. government's official web portal to all federal, state and local government web resources and services.